268  
NZUS93 KARX 270210  
HRRWXR  
 
CURRENT HOURLY OBSERVATIONS ACROSS  
MUCH OF THE UPPER MISSISSIPPI VALLEY  
NATIONAL WEATHER SERVICE LA CROSSE WI  
800 PM CST SUN FEB 26 2017  
 
   
..SOUTHEAST MINNESOTA
 
 
 
CITY SKY/WX TMP DP RH WIND PRES REMARKS  
ROCHESTER CLEAR 19 17 92 SW12 29.94R WCI 7  
ROCHESTER/MAYO MOCLDY 29 24 82 SW5 29.95R WCI 23  
WINONA CLEAR 30 23 74 W7 29.96R WCI 23  
AUSTIN CLEAR 19 18 93 CALM 29.95R  
ALBERT LEA CLEAR 27 21 80 SW5 29.94R WCI 21  
DODGE CENTER NOT AVBL  
PRESTON CLEAR 25 20 83 SW10 29.94S WCI 14  
OWATONNA MOCLDY 27 21 80 SW3 29.93S  
FARIBAULT MOCLDY 27 19 74 CALM 29.94R  

 
   
..ELSEWHERE IN MINNESOTA
 
 
 
CITY SKY/WX TMP DP RH WIND PRES REMARKS  
MINNEAPOLIS PTCLDY 30 11 45 W5 29.93R WCI 25  
INTNL FALLS CLEAR 15 2 56 W8 29.83R WCI 4  
DULUTH CLEAR 15 0 51 W6 29.86R WCI 6  
RED WING CLEAR 27 18 69 CALM 29.93R  
REDWOOD FALLS CLEAR 28 18 66 E3 29.91R  
MANKATO N/A 30 22 72 E3 29.94R  
WORTHINGTON CLEAR 29 25 85 SW10 29.90S WCI 20  
FAIRMONT CLEAR 27 23 85 SW12 29.94R WCI 17  

 
   
..SOUTHWEST WISCONSIN
 
 
 
CITY SKY/WX TMP DP RH WIND PRES REMARKS  
LA CROSSE CLEAR 32 23 69 SW6 29.96R WCI 26  
PRAIRIE DU CHI CLEAR 32 24 73 W3 29.99R  
BOSCOBEL CLEAR 33 24 69 S5 29.98R WCI 29  
LONE ROCK CLEAR 34 24 67 W5 29.97R WCI 30  
PLATTEVILLE CLEAR 33 25 74 W8 29.97R WCI 25  
FORT MC COY CLEAR 30 23 74 SW3 29.95R  
CAMP DOUGLAS CLEAR 31 22 68 SW10 29.92R WCI 23  
MAUSTON-NEW LI CLEAR 33 22 63 W8 29.92R WCI 26  
VIROQUA FAIR 29 22 76 SW5 29.93S WCI 24  
WIS DELLS CLEAR 33 22 64 W9 29.93R WCI 26  

 
   
..ELSEWHERE IN WISCONSIN
 
 
 
CITY SKY/WX TMP DP RH WIND PRES REMARKS  
MILWAUKEE PTCLDY 37 23 56 SW7 29.95R WCI 32  
MADISON CLEAR 36 21 54 VRB7 29.94R WCI 30  
GREEN BAY PTCLDY 34 25 69 W7 29.89R WCI 28  
EAU CLAIRE CLEAR 25 18 74 W3 29.92R  
BLACK RVR FLS FAIR 31 22 69 SW5 29.93R WCI 26  
MEDFORD CLOUDY 26 21 82 W5 29.86R WCI 20  
WAUSAU CLOUDY 30 21 69 W7 29.86R WCI 23  
WIS RAPIDS CLEAR 31 20 63 W7 29.91R WCI 24  
MARSHFIELD CLEAR 29 19 66 W10 29.87R WCI 20  
RICE LAKE CLEAR 25 9 51 CALM 29.92R  

 
   
..NORTHEAST IOWA
 
 
 
CITY SKY/WX TMP DP RH WIND PRES REMARKS  
WATERLOO CLEAR 27 22 81 NW5 29.99R WCI 22  
DUBUQUE CLEAR 31 24 75 W7 29.98R WCI 24  
DECORAH CLEAR 28 25 86 SW3 29.95S  
MASON CITY CLEAR 25 20 81 SW9 29.97R WCI 15  
CHARLES CITY CLEAR 25 23 93 SW6 29.97S WCI 18  
OELWEIN CLEAR 28 28 100 NW6 29.99R WCI 22  

 
   
..ELSEWHERE IN IOWA
 
 
 
CITY SKY/WX TMP DP RH WIND PRES REMARKS  
DES MOINES CLEAR 36 20 52 CALM 30.00R  
IOWA CITY CLEAR 36 22 56 CALM 30.02R  
FORT DODGE CLEAR 25 19 80 S5 29.98S WCI 19  
MARSHALLTOWN CLEAR 29 25 85 NW3 29.98R  
CEDAR RAPIDS CLEAR 31 24 75 NW6 29.99R WCI 25  

 
   
..NORTHERN ILLINOIS
 
 
 
CITY SKY/WX TMP DP RH WIND PRES REMARKS  
CHICAGO-OHARE LGT RAIN 44 28 53 SW16G25 29.99R  
CHICAGO-MIDWAY CLOUDY 45 22 40 SW18 30.01R  
MOLINE MOCLDY 41 30 65 W6 30.00R  
ROCKFORD CLEAR 38 29 70 SW9 29.99R WCI 31  
PEORIA CLEAR 39 24 55 S12 30.04R WCI 32  

 
 
NOTE: "FAIR" INDICATES FEW OR NO CLOUDS BELOW 12,000 FEET WITH NO  
SIGNIFICANT WEATHER AND/OR OBSTRUCTIONS TO VISIBILITY. WIND  
SPEEDS ARE IN MILES-PER-HOUR.  
 
 
CLICK HERE TO GO TO PREVIOUS BULLETINS.

The Nexlab WI Page
The Nexlab IA Page
The Nexlab MN Page Main Text Page